AirNav   Air Wisconsin Up To $57,000 Bonus
 
 1014 users online  

9FL5 Shady Bend Airport
Bell, Florida, USA

GOING TO BELL?


FAA INFORMATION EFFECTIVE 11 AUGUST 2022

Location

FAA Identifier: 9FL5
Lat/Long: 29-48-50.8350N 082-55-32.4550W
29-48.847250N 082-55.540917W
29.8141208,-82.9256819
(estimated)
Elevation: 25 ft. / 8 m (estimated)
Variation: 02W (1985)
From city: 5 miles NW of BELL, FL
Time zone: UTC -4 (UTC -5 during Standard Time)
Zip code: 32619

Airport Operations

Airport use: Private use. Permission required prior to landing
Activation date: 04/1980
Control tower: no
ARTCC: JACKSONVILLE CENTER
FSS: GAINESVILLE FLIGHT SERVICE STATION
Attendance: UNATNDD
Segmented circle: no

Airport Communications

WX AWOS-3PT at CTY (14 nm SW): 120.775 (352-498-0221)

Nearby radio navigation aids

VOR radial/distance  VOR name  Freq  Var
CTYr028/14.4CROSS CITY VORTAC112.0002W
GNVr286/34.8GATORS VORTAC116.2004W

 
NDB name  Hdg/Dist  Freq  Var  ID
LAKE CITY222/28.720403WLCQ .-.. -.-. --.-

Airport Services

Runway Information

Runway 18/36

Dimensions: 3000 x 100 ft. / 914 x 30 m
Surface: turf
RUNWAY 18  RUNWAY 36
Traffic pattern: leftleft

Airport Ownership and Management from official FAA records

Ownership: Privately-owned
Owner: SHADY BEND AIRPARK LLC
5500 NW 72 WAY
BELL, FL 32619
Phone (352) 949-2188
Manager: TRACY CROOK
5500 NW 72 WAY
BELL, FL 32619
Phone (352) 949-2188

Airport Operational Statistics

Aircraft based on the field: 6
Single engine airplanes: 6
    

Additional Remarks

FOR CD CTC JACKSONVILLE ARTCC AT 904-845-1592.

Instrument Procedures

There are no published instrument procedures at 9FL5.

Some nearby airports with instrument procedures:

KCTY - Cross City Airport (14 nm SW)
KLCQ - Lake City Gateway Airport (29 nm NE)
24J - Suwannee County Airport (30 nm N)
KGNV - Gainesville Regional Airport (35 nm E)
X60 - Williston Municipal Airport (36 nm SE)
 
Loc | Ops | Rwys | IFR | FBO | Links
Com | Nav | Svcs | Stats | Notes
Area around 9FL5 (Shady Bend Airport)
 
Road maps at: MapQuest Bing Google
 
Aerial photo
WARNING: Photo may not be current or correct
Aerial photo of 9FL5 (Shady Bend Airport)
Do you have a better or more recent aerial photo of Shady Bend Airport that you would like to share? If so, please send us your photo.

 
Sectional chart

 
Airport distance calculator
Flying to Shady Bend Airport? Find the distance to fly.

From to 9FL5

Sunrise and sunset
Times for 13-Aug-2022
 Local
(UTC-4)
 Zulu
(UTC)
Morning civil twilight06:3410:34
Sunrise06:5910:59
Sunset20:1400:14
Evening civil twilight20:3900:39

Current date and time
Zulu (UTC)  13-Aug-2022 22:14:34
Local (UTC-4)  13-Aug-2022 18:14:34
 
METAR
KCTY 
18nm SW 
132155Z AUTO 25008KT 10SM SCT027 BKN050 OVC120 25/24 A3000 RMK AO2 LTG DSNT NW P0018 T02490235
KLCQ 
29nm NE 
132155Z AUTO 30003KT 10SM TS SCT070 SCT090 BKN120 25/22 A3000 RMK AO2 LTG DSNT ALQS
K24J 
30nm N 
132155Z AUTO 19003KT 10SM 24/24 A2998 RMK A01 LTG DSNT E AND W P0069
KGNV 
34nm E 
132153Z 27010G16KT 10SM FEW017 BKN050 OVC055 26/23 A3002 RMK AO2 LTG DSNT N AND NE SLP162 T02610228
KX60 
36nm SE 
118.425 352-528-9949
132155Z AUTO 00000KT 10SM VCTS SCT060 BKN090 26/23 A3000 RMK AO2 LTG DSNT E AND NW T02640230
TAF
KGNV 
34nm E 
131720Z 1318/1418 30005KT P6SM VCTS FEW035CB SCT100 FM131900 30008KT P6SM VCTS BKN030CB BKN120 TEMPO 1319/1323 1SM TSRA BR BKN020CB FM140300 VRB03KT P6SM SCT030 OVC100 FM141500 04006KT P6SM SCT025
NOTAMs
Click for the latest NOTAMs
NOTAMs are issued by the DoD/FAA and will open in a separate window not controlled by AirNav.

 

 
 

Would you like to see your business listed on this page?

 If your business provides an interesting product or service to pilots, flight crews, aircraft, or users of the Shady Bend Airport, you should consider listing it here.  To start the listing process, click on the button below
 
Add a business
 

Other Pages about Shady Bend Airport

Update a link
 
Copyright © AirNav, LLC. All rights reserved. Privacy Policy  Contact